This is the latest recevied weather packets stored in our database for station/object IQ1GE. If no packets are shown the sender has not sent any weather packets the latest 10 day(s).
| Time | Temp. | Humidity | Pressure | Rain* | Wind** | Luminosity | Snow |
|---|---|---|---|---|---|---|---|
| 1778339671 | 21.67° C | 67% | 1016.9 hPa | 0 mm | - | - | - |
| 1778339371 | 21.67° C | 68% | 1017 hPa | 0 mm | - | - | - |
| 1778338471 | 21.11° C | 71% | 1017.1 hPa | 0 mm | - | - | - |
| 1778338174 | 21.11° C | 71% | 1017.2 hPa | 0 mm | - | - | - |
| 1778336674 | 21.11° C | 72% | 1017.3 hPa | 0 mm | - | - | - |
| 1778336074 | 21.11° C | 71% | 1017.5 hPa | 0 mm | - | - | - |
| 1778335774 | 21.11° C | 71% | 1017.5 hPa | 0 mm | - | - | - |
| 1778335471 | 21.11° C | 70% | 1017.6 hPa | 0 mm | - | - | - |
| 1778335171 | 21.11° C | 70% | 1017.7 hPa | 0 mm | - | - | - |
| 1778333974 | 21.67° C | 70% | 1017.7 hPa | 0 mm | - | - | - |
| 1778333371 | 21.67° C | 69% | 1017.8 hPa | 0 mm | - | - | - |
| 1778332771 | 21.67° C | 69% | 1017.8 hPa | 0 mm | - | - | - |
| 1778331871 | 21.11° C | 73% | 1018 hPa | 0 mm | - | - | - |
| 1778331271 | 21.11° C | 72% | 1018.2 hPa | 0 mm | - | - | - |
| 1778330971 | 21.67° C | 72% | 1018.1 hPa | 0 mm | - | - | - |
| 1778330671 | 21.11° C | 71% | 1018.1 hPa | 0 mm | - | - | - |
| 1778328274 | 21.11° C | 71% | 1018.4 hPa | 0 mm | - | - | - |
| 1778326774 | 21.11° C | 72% | 1018.5 hPa | 0 mm | - | - | - |
| 1778326471 | 21.11° C | 71% | 1018.6 hPa | 0 mm | - | - | - |
| 1778326174 | 21.11° C | 70% | 1018.7 hPa | 0 mm | - | - | - |
| 1778324071 | 21.11° C | 67% | 1018.7 hPa | 0 mm | - | - | - |
| 1778323774 | 21.11° C | 66% | 1018.6 hPa | 0 mm | - | - | - |
| 1778323474 | 21.11° C | 66% | 1018.6 hPa | 0 mm | - | - | - |
| 1778322271 | 21.11° C | 68% | 1018.6 hPa | 0 mm | - | - | - |
| 1778321974 | 21.11° C | 69% | 1018.6 hPa | 0 mm | - | - | - |
* Rain latest hour (hover to see other rain measurements)
** Current wind speed in m/s (hover to see current wind gust speed)